Location: Mentone
(34.5413°N, 85.5351°W)
Time: 20:42:49
(UTC-05:00)

Amateur Radio Satellites - All Passes

Search period start: 16 October 2017 20:12
Search period end: 17 October 2017 20:12
Location: Mentone, 34.5413°N, 85.5351°W

Satellite Date Start Highest point End Downlink Frequencies (MHz)
Time Altitude Azimuth
FO-29 16 Oct 20:14:45 20:19:22 18° 94° (E) 20:24:12 435.910
AO-73 16 Oct 20:19:35 20:24:07 81° 77° (ENE) 20:28:42 145.935
ZACube-1 16 Oct 20:39:07 20:43:32 52° 260° (W) 20:48:02 437.345
STRAND 1 16 Oct 20:40:11 20:45:10 50° 287° (WNW) 20:50:07 437.568
AAUSAT CUBESAT 2 16 Oct 20:42:36 20:46:03 26° 264° (W) 20:49:30 437.432
UWE-3 16 Oct 20:53:08 20:56:30 20° 266° (W) 20:59:54 435.000/436.395/437.385
O/OREOS (USA 219) 16 Oct 20:56:04 21:00:18 41° 105° (ESE) 21:04:37 437.305
YUBILEINY 16 Oct 20:59:15 21:08:00 64° 81° (E) 21:16:42 435.215
DELFI C3 16 Oct 21:14:28 21:18:10 43° 74° (ENE) 21:21:53 145.870
Oscar 11 16 Oct 21:24:36 21:28:11 25° 264° (W) 21:31:48 .
Max Valier Satellite 16 Oct 21:27:17 21:30:50 44° 75° (ENE) 21:34:25 145.860
EO-88 16 Oct 21:27:34 21:30:48 30° 73° (ENE) 21:34:02 145.990 - 145.960
UNISAT 6 16 Oct 21:36:53 21:40:07 19° 94° (E) 21:43:17 437.425
BEESAT 3 16 Oct 21:51:19 21:54:50 30° 55° (NE) 21:58:17 437.485
TIGRISAT 16 Oct 21:52:24 21:56:14 25° 96° (E) 21:59:59 435.000
FO-29 16 Oct 21:57:49 22:04:38 73° 285° (WNW) 22:12:10 435.910
AO-85 16 Oct 22:02:11 22:04:08 12° 48° (NE) 22:06:06 145.980
PRISM 16 Oct 22:23:16 22:26:37 24° 97° (E) 22:29:59 437.425
LO-87 16 Oct 22:31:06 22:33:53 22° 71° (ENE) 22:36:42 145.935 - 145.965
O/OREOS (USA 219) 16 Oct 22:36:59 22:39:53 16° 300° (WNW) 22:42:48 437.305
ESTCUBE 1 16 Oct 22:47:24 22:51:14 28° 71° (ENE) 22:55:06 437.505/2401.250
DELFI C3 16 Oct 22:52:45 22:53:06 10° 268° (W) 22:53:26 145.870
YUBILEINY 16 Oct 22:57:33 23:03:59 23° 278° (W) 23:10:26 435.215
BEESAT 2 16 Oct 23:01:40 23:05:38 54° 59° (ENE) 23:09:31 435.950
EO-88 16 Oct 23:02:48 23:04:28 13° 266° (W) 23:06:10 145.990 - 145.960
UNISAT 6 16 Oct 23:12:41 23:16:51 34° 289° (WNW) 23:20:57 437.425
EO-79 16 Oct 23:26:59 23:27:39 10° 92° (E) 23:28:18 145.935-145.965
TIGRISAT 16 Oct 23:29:00 23:32:47 25° 290° (WNW) 23:36:29 435.000
BEESAT 3 16 Oct 23:29:30 23:32:06 17° 250° (WSW) 23:34:41 437.485
POLYITAN 1 16 Oct 23:29:47 23:31:13 11° 92° (E) 23:32:38 437.675
AO-85 16 Oct 23:40:17 23:44:57 78° 243° (WSW) 23:49:57 145.980
FO-29 16 Oct 23:46:54 23:48:44 11° 300° (WNW) 23:50:37 435.910
QB50P2 16 Oct 23:48:01 23:51:23 22° 96° (E) 23:54:42 145.880/145.840
AIST 2D 16 Oct 23:53:15 23:56:44 80° 102° (ESE) 00:00:10 435.315
NANOSAT C BR1 16 Oct 23:55:36 23:58:54 22° 96° (E) 00:02:09 145.865
PRISM 16 Oct 23:58:35 00:01:44 22° 290° (WNW) 00:04:54 437.425
LO-87 17 Oct 00:04:49 00:07:12 17° 265° (W) 00:09:37 145.935 - 145.965
RS-15 17 Oct 00:06:11 00:16:57 39° 106° (ESE) 00:27:48 29.354- 29.394
DUCHIFAT 1 17 Oct 00:08:27 00:12:03 26° 97° (E) 00:15:36 145.980
SPROUT 17 Oct 00:17:21 00:21:35 70° 76° (ENE) 00:25:52 437.525
DX 1 17 Oct 00:18:15 00:18:45 10° 64° (ENE) 00:19:16 434.975-435.025
ESTCUBE 1 17 Oct 00:24:31 00:27:59 22° 264° (W) 00:31:27 437.505/2401.250
VELOX 1 17 Oct 00:30:53 00:35:13 69° 76° (ENE) 00:39:35 145.980
BUGSAT 1 17 Oct 00:34:11 00:35:47 12° 92° (E) 00:37:23 437.445
UKube-1 17 Oct 00:48:49 00:51:14 15° 67° (ENE) 00:53:39 .
EO-79 17 Oct 00:59:30 01:03:39 52° 286° (WNW) 01:07:46 145.935-145.965
POLYITAN 1 17 Oct 01:03:06 01:07:12 47° 286° (WNW) 01:11:15 437.675
QB50P2 17 Oct 01:23:35 01:27:03 25° 290° (WNW) 01:30:30 145.880/145.840
NANOSAT C BR1 17 Oct 01:31:00 01:34:30 25° 289° (WNW) 01:37:58 145.865
DUCHIFAT 1 17 Oct 01:44:21 01:47:31 21° 291° (WNW) 01:50:39 145.980
50 SAT 17 Oct 01:44:24 01:47:29 41° 260° (W) 01:50:36 437.505
DX 1 17 Oct 01:50:06 01:54:21 60° 259° (WSW) 01:58:39 434.975-435.025
M-CUBED/EXP-1 PRIME 17 Oct 01:55:56 01:59:15 37° 104° (ESE) 02:02:46 437.505
ITUPSAT 1 17 Oct 01:58:01 01:59:22 11° 63° (ENE) 02:00:44 437.325
MOZHAYETS 4 17 Oct 02:05:19 02:07:48 14° 66° (ENE) 02:10:16
BUGSAT 1 17 Oct 02:07:17 02:11:19 45° 286° (WNW) 02:15:18 437.445
Gurwin Techsat 1B 17 Oct 02:13:52 02:19:03 53° 100° (E) 02:24:14 435.225
Oscar 19 17 Oct 02:14:14 02:19:22 81° 102° (ESE) 02:24:29 437.125/150
BEESAT 17 Oct 02:14:18 02:17:26 18° 67° (ENE) 02:20:34 436.000
RS-15 17 Oct 02:16:51 02:28:53 59° 305° (NW) 02:41:02 29.354- 29.394
UKube-1 17 Oct 02:22:52 02:26:52 39° 261° (W) 02:30:55 .
NO-84 17 Oct 02:43:26 02:45:11 12° 120° (ESE) 02:46:56 435.350 FM
AO-7 17 Oct 03:23:00 03:30:20 34° 99° (E) 03:37:37 .
ITUPSAT 1 17 Oct 03:31:47 03:36:33 69° 258° (WSW) 03:41:21 437.325
M-CUBED/EXP-1 PRIME 17 Oct 03:32:11 03:33:24 11° 295° (WNW) 03:34:39 437.505
MOZHAYETS 4 17 Oct 03:40:00 03:44:29 48° 260° (W) 03:48:59
CUBESAT XI-V 17 Oct 03:41:08 03:45:15 32° 72° (ENE) 03:49:22 437.345
BEESAT 17 Oct 03:50:19 03:54:50 41° 261° (W) 03:59:22 436.000
Gurwin Techsat 1B 17 Oct 03:55:12 03:58:31 17° 295° (WNW) 04:01:50 435.225
Oscar 19 17 Oct 03:57:05 03:57:56 10° 298° (WNW) 03:58:48 437.125/150
KKS-1 17 Oct 04:00:50 04:03:18 15° 66° (ENE) 04:05:46 437.445
ITAMSAT 1 17 Oct 04:17:25 04:22:40 72° 102° (ESE) 04:27:53 435.822/435.867
NO-84 17 Oct 04:17:50 04:22:08 71° 313° (NW) 04:26:23 435.350 FM
RS-15 17 Oct 04:36:42 04:44:47 19° 332° (NNW) 04:52:51 29.354- 29.394
STARS 17 Oct 04:44:11 04:47:05 18° 67° (ENE) 04:49:59 437.465
DOVE 4 17 Oct 05:00:44 05:04:47 24° 96° (E) 05:08:56 437.250
AO-7 17 Oct 05:15:20 05:23:08 48° 295° (WNW) 05:30:58 .
CUBESAT XI-V 17 Oct 05:19:13 05:22:37 20° 265° (W) 05:26:02 437.345
KKS-1 17 Oct 05:35:16 05:39:27 42° 261° (W) 05:43:41 437.445
LilacSat-2 17 Oct 05:49:40 05:51:48 15° 94° (E) 05:53:56 437.200
XW-2F 17 Oct 05:52:54 05:54:49 14° 94° (E) 05:56:42 145.980 - 146.000
KAITUO 1B 17 Oct 05:58:15 05:59:38 12° 93° (E) 06:01:02 145.475/437.950
NO-84 17 Oct 05:58:19 06:00:11 12° 330° (NNW) 06:02:01 435.350 FM
ITAMSAT 1 17 Oct 05:59:23 06:01:27 12° 297° (WNW) 06:03:32 435.822/435.867
CUTE-I 17 Oct 06:00:05 06:03:52 19° 94° (E) 06:07:38 437.470
XW-2D 17 Oct 06:01:24 06:04:12 20° 95° (E) 06:06:59 145.860 - 145.880
XW-2B 17 Oct 06:14:19 06:17:35 28° 97° (E) 06:20:49 145.730 - 145.750
STRAND 1 17 Oct 06:15:28 06:18:38 17° 65° (ENE) 06:21:49 437.568
NUDT-PHONESAT 17 Oct 06:17:37 06:20:25 21° 96° (E) 06:23:13 437.300
STARS 17 Oct 06:19:07 06:23:06 34° 262° (W) 06:27:07 437.465
XW-2C 17 Oct 06:36:58 06:40:40 61° 101° (E) 06:44:21 145.795 - 145.815
DOVE 4 17 Oct 06:38:00 06:42:23 33° 288° (WNW) 06:46:57 437.250
JUGNU 17 Oct 06:42:28 06:43:59 11° 165° (SSE) 06:45:31 437.505
SO-50 17 Oct 06:49:33 06:53:20 27° 112° (ESE) 06:57:08 436.795
RS-15 17 Oct 06:59:20 07:04:44 14° 11° (N) 07:10:02 29.354- 29.394
O/OREOS (USA 219) 17 Oct 07:09:24 07:13:49 44° 67° (ENE) 07:18:11 437.305
HO-68 17 Oct 07:09:58 07:16:30 36° 98° (E) 07:22:59 435.675
LilacSat-2 17 Oct 07:22:50 07:26:05 28° 287° (WNW) 07:29:18 437.200
XW-2F 17 Oct 07:25:42 07:28:57 29° 287° (WNW) 07:32:12 145.980 - 146.000
KAITUO 1B 17 Oct 07:30:23 07:33:42 32° 286° (WNW) 07:37:01 145.475/437.950
XW-2D 17 Oct 07:35:26 07:38:14 20° 289° (WNW) 07:41:02 145.860 - 145.880
CUTE 1.7 + AOD 2 17 Oct 07:37:20 07:41:30 61° 100° (E) 07:45:38 437.475
CUTE-I 17 Oct 07:38:58 07:44:02 44° 288° (WNW) 07:49:07 437.470
XW-2B 17 Oct 07:49:19 07:51:29 15° 291° (WNW) 07:53:37 145.730 - 145.750
NUDT-PHONESAT 17 Oct 07:51:32 07:54:07 19° 289° (WNW) 07:56:42 437.300
SEEDS 17 Oct 07:51:51 07:55:55 53° 100° (E) 08:00:00 437.485
STRAND 1 17 Oct 07:52:24 07:57:21 50° 260° (W) 08:02:21 437.568
PCSat 17 Oct 07:54:11 07:58:08 21° 106° (ESE) 08:02:05 145.827
CUBEBUG 2 17 Oct 07:58:55 08:03:32 61° 100° (E) 08:08:00 437.445
YUBILEINY 17 Oct 08:05:43 08:08:40 12° 77° (ENE) 08:11:37 435.215
FO-29 17 Oct 08:08:20 08:12:45 29° 68° (ENE) 08:17:20 435.910
AO-73 17 Oct 08:12:08 08:15:18 20° 94° (E) 08:18:24 145.935
AAUSAT CUBESAT 2 17 Oct 08:27:07 08:31:11 58° 100° (E) 08:35:14 437.432
Tancredo 1 17 Oct 08:28:10 08:29:38 19° 132° (SE) 08:31:05 437.200
JUGNU 17 Oct 08:28:29 08:32:14 18° 175° (S) 08:35:59 437.505
SO-50 17 Oct 08:29:56 08:33:42 26° 307° (NW) 08:37:28 436.795
ZACube-1 17 Oct 08:31:08 08:35:14 38° 98° (E) 08:39:13 437.345
UNISAT 6 17 Oct 08:33:45 08:35:20 12° 65° (ENE) 08:36:56 437.425
UWE-3 17 Oct 08:44:55 08:49:26 71° 283° (WNW) 08:53:47 435.000/436.395/437.385
TIGRISAT 17 Oct 08:48:19 08:51:04 16° 67° (ENE) 08:53:50 435.000
XW-2A 17 Oct 08:48:45 08:51:52 37° 286° (WNW) 08:54:57 145.665 - 145.685
O/OREOS (USA 219) 17 Oct 08:50:22 08:52:46 14° 261° (W) 08:55:07 437.305
HO-68 17 Oct 08:57:37 09:04:06 38° 294° (WNW) 09:10:35 435.675
PRISM 17 Oct 09:11:15 09:12:19 11° 66° (ENE) 09:13:25 437.425
RS-15 17 Oct 09:11:59 09:22:37 35° 44° (NE) 09:32:42 29.354- 29.394
Oscar 11 17 Oct 09:14:16 09:18:35 75° 102° (ESE) 09:22:51 .
SEEDS 17 Oct 09:30:15 09:31:06 11° 294° (WNW) 09:31:56 437.485
PCSat 17 Oct 09:36:01 09:41:10 44° 301° (WNW) 09:46:20 145.827
CUBEBUG 2 17 Oct 09:37:58 09:39:31 12° 295° (WNW) 09:41:02 437.445
AO-73 17 Oct 09:47:46 09:51:30 28° 289° (WNW) 09:55:10 145.935
FO-29 17 Oct 09:53:35 09:57:51 26° 265° (W) 10:02:14 435.910
YUBILEINY 17 Oct 09:55:18 10:03:58 82° 94° (E) 10:12:41 435.215
UNISAT 6 17 Oct 10:06:54 10:11:25 61° 260° (W) 10:16:04 437.425
ZACube-1 17 Oct 10:08:32 10:11:07 16° 293° (WNW) 10:13:41 437.345
JUGNU 17 Oct 10:16:44 10:20:32 18° 185° (S) 10:24:20 437.505
TIGRISAT 17 Oct 10:22:56 10:27:18 44° 261° (W) 10:31:47 435.000
AIST 2D 17 Oct 10:24:57 10:27:08 16° 70° (ENE) 10:29:19 435.315
DELFI C3 17 Oct 10:28:52 10:32:48 66° 283° (WNW) 10:36:43 145.870
EO-88 17 Oct 10:32:26 10:36:03 67° 102° (ESE) 10:39:38 145.990 - 145.960
nSIGHT-1 17 Oct 10:33:06 10:36:13 55° 134° (SE) 10:39:21 .
Max Valier Satellite 17 Oct 10:33:56 10:37:37 78° 281° (W) 10:41:15 145.860
QB50P2 17 Oct 10:39:01 10:40:23 11° 66° (ENE) 10:41:45 145.880/145.840
PRISM 17 Oct 10:43:13 10:47:07 48° 260° (W) 10:51:03 437.425
SRMSAT 17 Oct 10:44:57 10:48:30 16° 171° (S) 10:52:03 437.500
NANOSAT C BR1 17 Oct 10:46:21 10:47:23 11° 65° (ENE) 10:48:25 145.865
NO-84 17 Oct 10:55:32 10:57:53 16° 33° (NNE) 11:00:06 435.350 FM
ISS 17 Oct 10:56:48 11:00:02 88° 319° (NW) 11:03:18 437.550
DUCHIFAT 1 17 Oct 10:58:06 11:00:06 13° 67° (ENE) 11:02:06 145.980
RS-15 17 Oct 11:24:15 11:35:53 68° 247° (WSW) 11:46:52 29.354- 29.394
LO-87 17 Oct 11:33:37 11:37:05 43° 99° (E) 11:40:32 145.935 - 145.965
BEESAT 3 17 Oct 11:39:27 11:40:51 12° 108° (ESE) 11:42:15 437.485
EO-79 17 Oct 11:47:41 11:51:54 70° 75° (ENE) 11:56:10 145.935-145.965
POLYITAN 1 17 Oct 11:51:21 11:55:36 77° 77° (ENE) 11:59:54 437.675
YUBILEINY 17 Oct 11:56:18 12:01:43 18° 293° (WNW) 12:07:10 435.215
AIST 2D 17 Oct 11:57:15 12:00:05 23° 264° (W) 12:02:55 435.315
JUGNU 17 Oct 12:06:55 12:08:47 11° 194° (SSW) 12:10:39 437.505
SPROUT 17 Oct 12:07:42 12:10:15 15° 94° (E) 12:12:48 437.525
nSIGHT-1 17 Oct 12:10:48 12:12:43 15° 330° (NNW) 12:14:39 .
QB50P2 17 Oct 12:11:30 12:15:39 52° 260° (W) 12:19:50 145.880/145.840
NANOSAT C BR1 17 Oct 12:18:24 12:22:32 55° 260° (W) 12:26:44 145.865
ESTCUBE 1 17 Oct 12:19:04 12:23:33 80° 285° (WNW) 12:28:00 437.505/2401.250
VELOX 1 17 Oct 12:25:20 12:28:14 17° 95° (E) 12:31:06 145.980
DUCHIFAT 1 17 Oct 12:31:17 12:35:19 44° 261° (W) 12:39:24 145.980
NO-84 17 Oct 12:32:06 12:35:32 47° 231° (SW) 12:38:39 435.350 FM
SRMSAT 17 Oct 12:32:52 12:36:58 19° 181° (S) 12:41:05 437.500
ISS 17 Oct 12:35:41 12:36:56 12° 333° (NNW) 12:38:11 437.550
M-CUBED/EXP-1 PRIME 17 Oct 12:39:14 12:42:05 24° 68° (ENE) 12:44:49 437.505
BEESAT 2 17 Oct 12:49:53 12:52:57 22° 111° (ESE) 12:56:04 435.950
BUGSAT 1 17 Oct 12:52:40 12:56:47 74° 77° (ENE) 13:00:59 437.445
50 SAT 17 Oct 13:08:46 13:09:27 10° 94° (E) 13:10:08 437.505
BEESAT 3 17 Oct 13:14:05 13:17:55 46° 302° (WNW) 13:21:49 437.485
Oscar 19 17 Oct 13:27:20 13:32:32 82° 75° (ENE) 13:37:42 437.125/150
Gurwin Techsat 1B 17 Oct 13:31:20 13:36:32 60° 74° (ENE) 13:41:46 435.225
DX 1 17 Oct 13:41:54 13:45:42 29° 98° (E) 13:49:29 434.975-435.025
SPROUT 17 Oct 13:42:16 13:46:13 36° 287° (WNW) 13:50:08 437.525
RS-15 17 Oct 13:44:18 13:45:49 10° 265° (W) 13:47:20 29.354- 29.394
AO-85 17 Oct 13:51:52 13:55:44 82° 118° (ESE) 13:59:39 145.980
VELOX 1 17 Oct 14:00:41 14:04:43 35° 288° (WNW) 14:08:45 145.980
UKube-1 17 Oct 14:12:56 14:17:02 41° 100° (E) 14:21:06 .
M-CUBED/EXP-1 PRIME 17 Oct 14:14:26 14:16:28 15° 259° (W) 14:18:27 437.505
AO-7 17 Oct 14:18:24 14:25:39 35° 62° (ENE) 14:32:54 .
SRMSAT 17 Oct 14:22:15 14:25:26 15° 191° (S) 14:28:37 437.500
BEESAT 2 17 Oct 14:27:07 14:30:30 26° 306° (NW) 14:33:56 435.950
50 SAT 17 Oct 14:38:56 14:41:49 28° 287° (WNW) 14:44:42 437.505
Gurwin Techsat 1B 17 Oct 15:14:12 15:16:48 14° 268° (W) 15:19:26 435.225
DX 1 17 Oct 15:18:25 15:21:39 21° 291° (WNW) 15:24:54 434.975-435.025
SO-50 17 Oct 15:25:07 15:26:56 12° 46° (NE) 15:28:47 436.795
ITAMSAT 1 17 Oct 15:31:46 15:36:56 77° 75° (ENE) 15:42:09 435.822/435.867
ITUPSAT 1 17 Oct 15:35:53 15:40:23 39° 99° (E) 15:44:50 437.325
MOZHAYETS 4 17 Oct 15:38:21 15:42:48 49° 100° (E) 15:47:12
UKube-1 17 Oct 15:50:16 15:52:39 15° 294° (WNW) 15:55:02 .
BEESAT 17 Oct 15:53:30 15:58:16 64° 102° (ESE) 16:02:59 436.000
DOVE 4 17 Oct 16:04:49 16:06:45 13° 66° (ENE) 16:08:44 437.250
AO-7 17 Oct 16:10:14 16:18:07 47° 258° (WSW) 16:26:02 .
Tancredo 1 17 Oct 16:11:01 16:12:42 34° 40° (NE) 16:14:23 437.200
SO-50 17 Oct 17:03:17 17:07:55 78° 243° (WSW) 17:12:36 436.795
nSIGHT-1 17 Oct 17:03:36 17:05:40 16° 31° (NNE) 17:07:43 .
ITUPSAT 1 17 Oct 17:14:35 17:17:51 19° 293° (WNW) 17:21:08 437.325
XW-2C 17 Oct 17:15:28 17:18:05 18° 70° (ENE) 17:20:41 145.795 - 145.815
MOZHAYETS 4 17 Oct 17:17:12 17:19:28 14° 294° (WNW) 17:21:43
CUBESAT XI-V 17 Oct 17:17:40 17:22:13 62° 285° (WNW) 17:26:45 437.345
CUTE-I 17 Oct 17:18:31 17:22:35 23° 67° (ENE) 17:26:42 437.470
ISS 17 Oct 17:27:47 17:30:27 22° 34° (NE) 17:33:05 437.550
KKS-1 17 Oct 17:29:19 17:33:37 45° 100° (E) 17:37:54 437.445
BEESAT 17 Oct 17:33:44 17:35:25 12° 296° (WNW) 17:37:07 436.000
HO-68 17 Oct 17:36:37 17:41:21 19° 60° (ENE) 17:46:05 435.675
DOVE 4 17 Oct 17:40:09 17:44:02 40° 262° (W) 17:48:02 437.250
LilacSat-2 17 Oct 18:00:11 18:04:01 78° 77° (ENE) 18:07:51 437.200
XW-2F 17 Oct 18:02:01 18:05:48 70° 76° (ENE) 18:09:34 145.980 - 146.000
KAITUO 1B 17 Oct 18:05:58 18:09:40 59° 76° (ENE) 18:13:20 145.475/437.950
STARS 17 Oct 18:11:18 18:15:39 52° 100° (E) 18:19:58 437.465
XW-2D 17 Oct 18:11:45 18:15:33 76° 258° (WSW) 18:19:22 145.860 - 145.880
XW-2B 17 Oct 18:25:11 18:28:54 51° 259° (W) 18:32:38 145.730 - 145.750
NUDT-PHONESAT 17 Oct 18:25:33 18:29:17 75° 259° (W) 18:33:01 437.300
CUTE 1.7 + AOD 2 17 Oct 18:26:39 18:30:12 27° 72° (ENE) 18:33:46 437.475
PCSat 17 Oct 18:27:01 18:32:26 69° 63° (ENE) 18:37:48 145.827
nSIGHT-1 17 Oct 18:39:01 18:42:08 50° 226° (SW) 18:45:14 .
SEEDS 17 Oct 18:40:22 18:43:40 23° 71° (ENE) 18:46:58 437.485
XW-2C 17 Oct 18:48:54 18:52:03 24° 264° (W) 18:55:12 145.795 - 145.815
CUBEBUG 2 17 Oct 18:53:06 18:57:12 33° 71° (ENE) 19:01:24 437.445
CUTE-I 17 Oct 18:57:28 19:02:22 38° 262° (W) 19:07:18 437.470
ISS 17 Oct 19:04:00 19:06:55 30° 229° (SW) 19:09:51 437.550
AO-73 17 Oct 19:05:39 19:07:07 11° 65° (ENE) 19:08:35 145.935
KKS-1 17 Oct 19:07:19 19:09:45 15° 294° (WNW) 19:12:09 437.445
AAUSAT CUBESAT 2 17 Oct 19:14:02 19:17:19 23° 71° (ENE) 19:20:36 437.432
XW-2A 17 Oct 19:15:59 19:19:04 32° 74° (ENE) 19:22:08 145.665 - 145.685
HO-68 17 Oct 19:21:09 19:28:17 73° 256° (WSW) 19:35:29 435.675
ZACube-1 17 Oct 19:23:32 19:26:57 21° 69° (ENE) 19:30:23 437.345
UWE-3 17 Oct 19:37:27 19:41:58 58° 75° (ENE) 19:46:33 435.000/436.395/437.385
STARS 17 Oct 19:49:39 19:51:28 12° 295° (WNW) 19:53:18 437.465
CUTE 1.7 + AOD 2 17 Oct 20:02:49 20:05:58 20° 265° (W) 20:09:07 437.475
